Location: Kelowna
(49.8880°N, 119.4960°W)
Time: 23:42:20
(UTC-07:00)

Envisat - Visible Passes

Search period start: 19 April 2024 00:00
Search period end: 29 April 2024 00:00
Orbit: 762 x 764 km, 98.3° (Epoch: 19 April)

Date Brightness Start Highest point End Pass type
(mag) Time Alt. Az. Time Alt. Az. Time Alt. Az.
19 Apr 3.4 04:16:20 10° NNE 04:21:24 64° ESE 04:26:26 10° S visible
20 Apr 4.5 03:39:20 10° NNE 03:43:52 32° E 03:48:22 10° SSE visible
21 Apr 5.5 03:03:04 10° NE 03:06:08 16° E 03:09:11 10° SE visible
21 Apr 3.0 04:40:39 10° NNE 04:45:45 81° WNW 04:50:49 10° SSW visible
22 Apr 3.8 04:03:24 10° NNE 04:08:21 50° E 04:13:16 10° S visible
23 Apr 4.9 03:26:35 10° NE 03:30:45 25° E 03:34:54 10° SSE visible
23 Apr 3.3 05:05:05 10° N 05:10:00 52° WNW 05:14:54 10° SW visible
24 Apr 5.6 02:50:54 10° ENE 02:52:56 12° E 02:54:58 10° ESE visible
24 Apr 3.1 04:27:38 10° NNE 04:32:44 80° ESE 04:37:49 10° SSW visible
25 Apr 4.2 03:50:30 10° NNE 03:55:16 39° E 04:00:01 10° SSE visible
26 Apr 5.2 03:13:54 10° NE 03:17:36 20° E 03:21:16 10° SE visible
26 Apr 3.1 04:51:59 10° N 04:57:02 65° WNW 05:02:03 10° SSW visible
27 Apr 3.4 04:14:38 10° NNE 04:19:42 63° ESE 04:24:43 10° S visible
28 Apr 4.6 03:37:39 10° NNE 03:42:09 31° E 03:46:38 10° SSE visible
